Theta_e
296 294 293 293 291 289 289 290 290 289 289 289 288 287 285 284 282 280 280 280 281 286 285 284 287 285 285 285 287 286 284 288 286 283 283 283 282 288 289 290 291 291 292 293 293 293 293 293 293 293 293 293 294 295 295 295 296 296 297 298 298 299 298 299 298 298 299 299 299 300 300 299 300 300
294 292 291 291 290 289 289 288 289 288 288 288 288 287 286 284 283 281 280 280 282 284 285 284 284 285 285 286 287 285 283 290 285 282 282 282 283 287 287 289 289 290 291 292 292 292 292 292 292 292 292 292 294 295 295 295 295 296 297 298 298 298 298 298 297 298 297 298 299 299 299 299 300 300
292 291 289 289 289 288 288 288 288 287 288 287 286 286 287 286 284 283 280 280 281 284 283 285 284 284 284 285 283 284 284 287 285 282 281 281 286 286 285 286 288 289 291 291 291 291 292 292 292 292 291 292 293 293 294 294 294 295 295 296 297 297 297 296 296 296 296 297 298 298 298 298 299 299
291 290 288 288 288 287 287 287 287 286 287 287 286 286 287 285 285 285 282 280 282 284 283 283 284 284 283 283 283 282 283 284 286 281 281 282 284 282 281 284 286 287 289 290 289 290 290 290 290 291 291 291 292 292 293 293 293 294 295 295 296 295 295 295 295 295 295 296 296 297 297 297 297 298
289 288 288 287 287 286 286 286 286 286 286 285 286 286 285 285 284 285 283 282 281 282 283 283 284 285 283 282 282 281 281 281 281 282 280 280 279 280 280 280 284 286 288 288 288 289 289 289 289 289 289 290 290 291 292 291 291 293 293 294 295 295 294 295 295 295 294 295 295 295 295 296 297 297
288 287 286 286 286 285 286 285 285 286 285 285 285 285 285 285 284 284 284 282 281 280 281 282 282 283 283 281 281 281 280 280 280 279 279 280 279 279 280 279 280 285 287 287 287 287 288 288 288 288 288 289 289 290 291 290 291 292 292 292 293 293 294 295 294 293 293 294 294 295 295 295 295 296
286 286 286 286 285 285 285 285 285 285 285 284 284 284 284 284 284 283 283 282 282 281 281 281 281 282 282 282 282 281 281 280 280 279 279 279 280 280 279 279 280 284 286 286 286 286 286 287 287 287 287 287 288 289 289 289 290 291 292 292 291 291 292 292 292 292 292 293 293 293 294 294 294 294
286 286 285 285 285 285 284 284 284 284 284 284 284 284 283 284 284 284 283 283 281 281 281 281 281 282 281 281 280 281 280 279 278 278 279 278 278 278 279 278 278 282 285 284 284 285 285 285 286 286 286 287 287 288 288 288 289 289 290 291 291 291 291 291 290 291 291 292 293 293 293 293 293 293
286 285 285 285 285 284 284 284 283 284 284 284 284 284 284 284 284 284 284 282 282 281 281 281 281 282 281 281 279 279 279 279 278 278 278 278 277 278 278 279 280 282 283 282 282 283 283 284 284 285 285 286 286 286 287 287 288 288 289 289 289 290 290 290 290 290 290 290 290 291 292 292 292 292
286 285 285 285 285 284 284 284 284 284 284 284 284 284 283 283 283 283 282 282 282 281 281 281 280 281 281 278 278 278 278 278 277 277 277 277 277 277 277 277 279 279 278 278 278 280 281 282 283 284 284 285 285 285 286 286 287 287 288 289 289 289 289 289 289 289 289 289 289 289 290 290 291 291
286 285 285 285 285 284 284 284 284 284 284 284 284 284 284 283 283 282 282 281 281 281 281 280 281 280 279 278 277 278 278 277 277 275 274 273 277 277 275 275 276 277 277 278 280 280 280 281 280 282 282 283 284 284 284 285 286 287 288 288 288 288 288 288 288 288 289 289 288 288 288 288 289 290
285 284 285 285 285 285 284 285 284 285 284 285 284 284 283 283 283 282 281 281 281 280 280 280 280 278 278 277 277 277 276 275 274 275 273 272 274 275 275 273 272 273 274 274 275 277 278 277 279 280 280 281 282 282 281 282 284 286 287 288 288 287 287 287 287 287 288 288 288 288 287 287 287 289
284 284 284 285 285 285 285 286 286 286 286 285 284 283 283 283 282 282 281 281 281 280 280 279 279 278 277 277 276 275 274 272 273 273 273 273 275 277 276 274 272 273 274 274 272 273 273 273 274 274 275 276 278 278 280 280 284 286 287 287 287 287 287 287 286 287 287 287 288 288 287 286 286 286
283 283 284 285 285 285 285 285 286 287 287 287 286 284 283 283 282 281 281 280 280 280 279 279 278 276 275 276 276 275 276 275 273 272 272 272 275 276 274 272 271 272 274 273 272 272 272 272 273 273 273 275 276 275 276 279 284 285 286 286 286 286 286 286 286 286 286 287 287 287 286 285 285 284
283 283 283 284 284 285 285 285 287 288 288 287 287 286 285 285 283 282 280 280 280 279 278 279 277 276 275 277 277 277 275 273 273 273 274 275 275 273 272 269 272 273 274 272 270 270 271 270 271 272 272 273 274 275 276 283 285 285 285 285 285 285 285 285 285 285 286 286 287 287 286 284 284 284
283 283 283 283 284 284 284 285 286 286 287 287 287 286 286 286 286 285 282 280 279 279 277 276 277 277 276 276 277 276 274 272 273 273 274 276 275 273 272 272 271 273 274 269 267 269 269 268 271 270 271 273 273 275 279 283 285 285 285 284 284 284 284 285 285 285 285 285 286 286 286 284 283 283
283 282 282 282 283 283 284 284 284 284 285 286 287 287 286 286 286 286 285 284 282 281 278 276 276 277 277 277 277 277 276 274 270 273 275 276 275 274 273 273 273 274 272 267 266 265 268 267 270 269 271 272 272 274 277 283 284 285 284 284 284 284 284 284 284 284 285 285 285 285 285 284 282 282
282 282 282 282 282 282 282 283 283 283 283 283 283 283 283 282 284 285 286 285 283 282 279 277 276 278 278 278 278 277 278 273 271 273 275 276 275 274 273 274 274 272 271 268 268 264 264 266 267 268 270 271 272 271 277 282 283 284 283 282 283 283 283 283 283 284 284 284 284 285 285 284 282 281
282 282 282 282 282 281 282 282 282 282 282 282 282 281 281 281 281 282 282 283 282 281 280 279 278 279 279 279 278 278 278 277 277 278 277 276 276 275 274 270 269 268 269 268 269 264 265 265 267 266 269 270 270 268 274 280 282 283 282 282 282 282 282 282 282 283 283 284 284 284 284 284 282 281
282 282 281 281 281 281 281 282 284 283 282 281 280 280 280 280 280 281 282 283 283 281 280 280 280 279 279 281 279 279 279 279 279 278 276 275 272 270 269 267 265 266 267 270 268 264 262 264 268 269 269 269 268 269 268 276 280 281 281 281 281 281 281 281 282 282 283 283 283 283 284 283 282 280
281 281 281 281 280 280 280 283 285 285 283 281 280 280 279 280 279 279 281 283 284 284 284 283 283 283 283 284 284 284 284 282 278 275 273 272 270 268 267 267 266 264 267 268 270 265 263 263 268 268 268 268 269 267 267 268 277 279 279 279 280 280 280 280 281 281 282 282 283 283 283 283 281 279
280 280 281 281 280 280 280 284 285 285 283 280 280 280 279 278 278 278 279 280 282 284 284 284 283 284 284 284 284 284 283 283 281 274 272 268 269 268 269 267 268 269 266 265 268 263 263 265 267 268 268 268 264 264 264 272 272 275 275 277 278 278 279 279 279 280 280 281 282 282 283 283 281 276
279 279 281 281 281 280 281 285 286 286 283 281 281 280 279 278 278 278 279 278 278 280 280 280 281 281 281 280 277 276 282 282 281 275 272 272 271 269 269 269 268 266 264 267 268 265 265 267 268 269 267 265 267 264 265 270 270 271 270 269 270 276 276 277 277 278 279 280 281 282 282 282 281 276
278 279 279 281 283 283 284 286 287 286 285 281 281 281 279 278 278 280 279 279 278 278 279 278 277 276 275 275 274 273 273 273 273 272 272 273 272 270 270 270 268 266 262 262 272 265 266 267 265 269 267 265 264 267 268 269 270 270 267 268 266 272 273 273 273 276 277 278 280 280 281 281 281 277
278 278 279 279 283 284 284 286 287 287 286 284 282 281 280 280 280 280 277 278 279 278 277 276 274 273 272 272 272 272 272 271 271 272 275 273 274 272 271 269 269 268 269 267 274 267 263 264 265 267 265 267 268 268 269 269 268 267 268 266 264 267 267 268 269 269 273 275 277 279 279 280 281 279
278 278 279 279 282 285 285 285 287 287 287 286 282 281 283 283 282 279 278 278 278 277 276 274 274 273 272 272 271 272 272 272 272 271 271 274 274 274 273 271 269 268 267 266 276 263 264 263 267 267 268 267 267 269 268 268 266 263 266 267 264 265 266 266 267 268 268 269 269 275 276 279 279 280
278 278 278 279 282 285 285 286 287 287 288 287 283 284 284 283 283 280 277 277 277 275 275 274 273 273 272 272 272 272 272 272 272 272 272 272 273 273 273 273 273 271 269 267 268 266 264 263 267 267 267 268 267 268 269 268 267 268 266 266 264 264 264 264 266 266 267 268 269 275 275 276 278 278
277 277 278 279 282 284 285 285 286 288 287 286 286 285 284 284 283 278 276 276 275 274 273 273 272 272 272 272 272 272 272 272 272 272 272 271 270 271 271 271 271 271 270 268 266 267 266 265 264 268 269 267 266 266 266 270 270 266 265 266 263 262 264 264 265 266 267 267 268 269 269 269 271 272
278 280 282 282 282 283 284 285 286 286 287 287 286 285 284 283 281 277 275 275 274 273 273 272 272 272 272 272 271 272 272 272 272 271 271 270 270 270 271 270 269 268 269 267 267 266 267 266 266 267 267 268 267 268 268 268 269 266 265 265 261 263 264 264 263 264 265 267 266 267 267 268 270 273
283 283 283 283 283 283 283 284 284 283 284 286 286 285 284 282 279 276 275 274 273 273 272 272 272 272 271 271 271 271 271 271 270 270 269 269 269 268 267 267 268 265 266 266 267 267 267 267 267 266 264 264 266 266 268 267 266 264 264 263 263 263 262 262 263 264 265 264 265 266 268 269 271 272
281 283 283 282 282 282 283 283 283 283 283 283 284 283 282 279 277 276 275 274 273 273 272 272 271 270 271 270 270 269 270 269 269 270 270 269 269 268 266 266 266 267 268 264 266 267 267 268 268 267 264 262 262 266 266 263 263 265 262 261 262 260 260 261 262 264 263 263 263 265 267 268 269 272
278 279 282 282 281 281 281 281 281 281 279 279 278 279 277 275 275 275 276 275 273 273 272 270 269 268 268 268 269 268 267 268 268 269 270 270 269 268 267 265 266 263 264 266 263 266 269 268 267 267 268 266 264 260 258 259 262 263 262 262 262 260 260 262 262 262 263 263 262 263 264 266 267 269
275 276 276 276 278 278 278 279 278 277 276 275 275 275 273 272 272 273 272 272 272 272 270 270 269 269 268 268 268 268 266 267 267 268 268 270 269 268 267 267 266 264 264 266 265 264 264 268 267 268 267 266 267 265 261 262 262 259 261 261 261 260 260 260 261 261 261 262 260 259 262 265 266 267
274 274 274 275 275 276 277 277 276 275 275 274 273 272 273 272 271 271 271 271 271 271 270 270 269 269 268 268 267 267 267 267 268 269 270 268 269 268 267 266 267 266 266 266 265 265 263 263 263 264 263 265 263 265 266 265 264 260 258 256 259 259 260 259 261 260 261 262 261 259 260 263 264 265
275 275 274 275 275 275 276 276 276 275 274 273 272 272 271 272 271 271 271 271 271 270 269 269 269 268 268 267 267 267 267 267 267 267 269 269 269 268 268 267 267 266 265 265 264 263 262 263 263 263 261 262 264 265 269 268 262 265 259 257 259 260 259 259 261 260 260 261 261 260 260 258 261 265
275 275 275 275 274 274 274 275 275 274 274 273 272 272 271 271 271 271 271 271 270 269 269 268 268 268 268 268 267 267 267 267 267 267 267 268 268 269 269 268 267 267 266 265 265 264 262 263 263 262 260 259 262 264 262 271 271 264 261 258 256 256 258 259 260 260 260 261 260 260 260 260 260 264
275 275 275 275 275 275 274 275 274 274 274 273 273 272 272 271 271 271 271 272 270 269 269 269 268 268 268 267 267 267 267 267 266 267 267 268 268 268 268 268 268 267 266 266 265 264 262 262 261 261 260 260 261 263 263 262 269 271 264 262 258 256 259 257 258 259 260 259 258 259 259 258 258 263
276 275 275 276 276 276 276 275 275 274 274 273 273 273 273 272 272 272 271 270 269 268 269 268 268 268 267 267 267 266 267 267 267 266 267 267 267 267 267 267 267 267 266 266 265 264 262 263 262 261 262 262 262 263 261 260 259 263 271 265 261 259 260 259 258 257 258 259 261 261 260 259 260 263
278 276 276 276 276 276 276 276 275 274 274 274 273 273 273 273 272 271 269 269 269 268 268 268 267 267 267 267 267 266 266 266 266 266 266 266 267 266 267 267 266 266 266 265 265 263 261 261 262 262 262 262 262 260 259 258 257 257 262 271 264 258 258 260 259 255 256 258 259 258 259 260 264 271
279 277 276 276 276 276 275 276 275 275 274 274 274 274 273 273 272 270 269 268 268 268 268 267 267 267 267 267 266 267 266 266 266 266 266 266 267 267 267 267 266 266 265 265 264 264 262 262 262 263 263 264 263 259 256 258 257 257 259 266 272 267 262 259 259 257 257 258 256 259 257 257 260 257
277 277 276 276 276 275 275 275 275 274 274 274 274 274 274 273 272 271 270 269 268 268 267 267 267 267 266 266 266 266 265 266 266 266 266 266 266 267 267 267 266 266 265 264 264 263 263 264 264 268 265 263 262 261 261 259 260 257 258 262 269 273 272 269 262 258 258 257 258 256 256 257 256 257
273 274 275 273 274 275 275 275 275 275 274 274 273 272 271 271 271 271 269 268 268 267 267 267 267 266 266 266 266 266 265 265 265 265 265 265 265 266 267 267 265 265 265 264 264 263 263 261 262 263 262 263 263 262 261 262 260 258 257 258 258 268 272 273 272 269 262 260 256 255 256 257 256 255
273 273 273 273 273 273 274 274 274 274 273 272 271 271 270 269 268 268 267 266 266 266 266 266 266 266 266 266 266 266 265 265 265 265 265 265 265 265 265 266 266 265 265 264 263 262 261 261 260 260 261 261 261 262 261 261 261 258 256 257 260 260 262 270 272 272 272 271 270 262 256 254 253 256
273 273 273 273 273 273 273 273 273 273 272 272 271 269 269 268 267 267 267 267 266 265 265 265 265 265 265 265 265 265 265 265 265 265 264 265 265 265 265 265 265 265 264 264 263 263 261 259 260 261 260 261 261 261 261 259 261 261 259 258 258 260 261 259 260 267 270 272 272 271 272 271 271 270
275 275 275 275 274 274 274 273 273 272 272 271 270 269 268 268 267 267 266 266 265 265 265 264 264 264 264 264 264 264 264 265 265 265 265 265 265 265 265 264 264 264 263 264 262 261 260 259 259 261 261 261 261 262 263 262 262 261 259 257 257 258 258 259 261 261 261 260 269 272 273 273 273 273
Wind_Speed
7 6 8 8 7 6 4 4 5 6 6 6 6 7 8 7 7 5 5 4 3 1 1 3 0 1 1 2 3 5 3 4 6 4 4 4 4 10 15 15 15 15 15 15 16 17 17 17 17 18 19 19 20 21 21 22 23 24 27 28 30 30 30 30 30 31 31 32 32 33 33 34 35 35
6 6 5 6 7 5 5 6 5 6 7 6 6 5 5 5 7 5 6 5 2 2 2 2 2 0 1 2 4 4 3 6 6 4 4 4 4 12 14 15 15 14 15 16 16 17 17 16 17 18 18 19 20 21 21 22 23 24 26 27 27 28 29 29 30 30 31 32 32 32 33 34 35 36
7 7 7 5 7 6 6 6 6 5 7 6 6 5 4 3 5 7 4 4 2 2 2 1 1 2 1 3 3 3 4 4 4 3 4 3 7 9 9 14 14 14 15 15 16 17 17 16 17 18 18 18 19 20 20 21 23 25 27 26 27 28 29 29 29 30 31 32 32 32 32 33 35 36
7 8 8 7 8 6 5 6 6 6 5 6 6 5 5 3 3 5 4 4 4 1 2 3 1 1 2 2 3 2 3 3 4 4 3 4 5 6 5 9 14 13 14 14 16 17 16 16 17 17 17 18 18 19 20 21 23 24 24 25 26 27 28 29 29 30 30 31 31 32 32 33 34 36
7 8 8 7 6 6 8 6 6 6 6 5 5 5 5 5 3 5 4 5 3 1 2 2 1 0 3 2 1 3 2 3 3 4 3 4 4 4 5 5 9 13 13 13 16 16 16 17 17 17 17 17 17 18 19 20 21 23 24 24 25 26 27 28 29 30 30 30 30 31 32 33 34 35
7 7 8 7 7 6 7 7 7 7 7 6 6 5 6 5 5 3 4 3 4 4 0 1 2 1 2 1 1 3 3 2 2 4 3 3 3 3 5 5 6 12 12 14 16 15 16 16 16 16 16 17 17 18 18 19 21 22 23 23 24 26 27 28 29 29 30 30 30 31 32 33 34 34
7 8 8 8 7 5 7 6 6 6 6 6 7 6 4 5 4 3 3 4 4 5 3 1 0 1 0 1 1 2 1 1 3 3 3 3 3 2 4 5 5 10 12 15 16 16 16 16 16 16 16 16 16 17 18 19 20 22 23 23 24 25 26 27 28 29 29 30 30 31 32 32 33 34
9 9 8 8 8 7 8 7 6 5 6 6 6 6 4 5 5 4 3 2 3 3 5 2 2 1 1 0 2 1 1 3 3 3 3 3 3 2 3 4 4 7 11 14 15 15 16 17 17 17 17 16 16 17 18 18 20 21 22 23 24 25 27 28 28 29 30 30 30 31 31 32 32 33
11 10 10 10 8 8 9 7 7 7 7 6 6 6 5 5 5 4 4 4 2 4 5 2 2 1 1 1 2 1 3 2 2 3 3 2 3 3 2 3 3 6 9 12 13 13 14 16 17 17 17 17 17 17 18 18 19 21 22 22 23 24 25 26 27 28 28 29 29 30 30 31 31 32
11 11 10 10 10 10 11 10 8 8 8 7 7 7 6 5 5 5 4 4 3 3 3 4 2 1 2 1 0 1 3 1 1 1 2 2 1 3 5 3 3 1 2 5 5 7 9 13 16 16 16 16 17 17 17 17 18 20 20 21 22 23 24 25 25 26 28 29 29 29 30 30 30 31
11 10 9 10 10 11 10 11 11 10 8 8 8 8 7 6 6 6 5 4 4 4 4 3 3 3 2 2 2 1 2 2 3 1 2 2 2 2 2 5 3 1 3 5 10 9 9 12 10 14 15 16 17 17 18 18 19 20 21 21 22 23 24 24 25 25 27 28 29 29 29 29 30 31
10 10 10 10 11 10 10 11 10 11 10 8 7 6 7 7 7 6 6 5 5 5 5 5 4 3 4 1 0 1 2 2 1 1 2 3 5 5 3 2 2 3 3 6 6 6 7 7 10 13 13 15 18 18 16 17 18 21 21 21 22 23 23 24 24 25 26 27 29 29 29 28 29 29
6 7 8 8 8 9 10 12 11 11 10 10 9 7 8 8 7 6 6 6 5 5 5 5 3 4 4 4 3 1 3 2 2 1 1 1 1 2 5 5 1 2 5 5 4 4 4 5 4 5 7 8 12 12 15 13 16 19 20 20 21 22 22 23 23 24 25 26 28 29 29 28 28 29
6 6 7 7 11 11 11 12 12 12 11 9 8 11 10 9 8 7 7 6 6 6 6 7 6 5 6 5 4 3 3 3 2 2 1 1 2 1 4 3 1 1 5 6 7 5 3 4 5 4 6 6 7 6 7 8 12 16 19 20 20 21 22 22 22 23 24 25 26 28 28 27 27 28
10 7 6 5 8 9 10 10 13 12 11 10 8 8 9 8 11 10 8 7 7 8 7 5 5 6 6 5 4 4 4 2 2 2 1 1 1 1 3 3 4 1 6 5 5 7 4 3 6 6 4 5 6 7 7 14 16 18 19 19 20 20 21 21 22 23 24 24 26 27 28 27 27 28
9 10 8 6 6 7 8 8 9 10 11 10 10 10 10 9 7 8 9 8 7 7 7 7 7 5 6 4 5 3 3 4 2 2 1 3 1 1 1 2 2 2 4 3 3 7 3 1 5 6 4 5 4 7 11 15 16 18 18 18 19 19 20 21 21 22 23 24 25 25 27 27 26 26
11 10 9 8 6 5 10 8 7 8 8 9 10 10 10 9 11 11 9 7 7 7 7 7 7 8 5 6 6 5 5 3 3 2 2 3 3 2 3 3 3 2 2 3 2 3 5 2 5 7 5 5 5 7 10 14 15 17 18 18 19 19 20 20 21 22 22 23 24 24 26 26 25 26
10 11 11 10 9 7 8 7 8 8 8 8 8 7 6 6 7 10 11 10 8 7 7 7 7 5 6 6 5 6 5 4 3 4 4 4 3 3 3 3 2 2 2 2 0 2 4 2 3 5 7 4 6 4 9 14 14 16 17 17 18 18 19 19 20 21 22 22 23 24 25 25 25 25
10 10 9 10 11 10 9 8 10 10 9 9 7 7 6 6 6 6 6 6 6 5 4 5 4 4 5 6 7 6 5 5 4 4 4 4 3 2 0 1 1 2 1 1 1 1 3 3 4 3 6 6 6 3 6 13 14 15 16 17 17 18 18 19 20 20 21 22 23 23 24 24 24 24
7 8 9 9 9 10 10 11 15 11 9 9 9 8 7 6 5 6 4 5 5 4 4 5 6 5 6 8 7 6 5 4 4 3 4 2 2 1 1 2 1 0 3 2 2 0 2 2 4 5 5 5 4 5 3 9 14 14 15 16 17 18 18 18 19 20 20 21 22 23 23 22 23 23
7 7 7 7 8 9 9 13 17 16 13 9 9 9 8 6 5 6 4 9 11 11 11 10 11 11 12 12 11 10 10 7 6 5 4 5 4 1 1 2 0 1 1 1 2 1 2 2 2 7 4 4 4 4 4 5 8 12 13 15 17 17 17 17 18 19 20 21 21 22 22 22 22 21
4 4 7 6 6 9 9 16 18 18 13 9 9 9 9 8 8 7 5 5 7 12 12 12 13 14 13 12 11 11 9 9 8 7 7 4 6 4 3 3 1 3 1 2 1 1 2 1 2 4 6 4 1 1 3 5 6 7 8 12 15 16 16 16 17 18 19 20 20 21 22 22 20 11
4 4 6 8 7 7 9 18 18 19 14 9 10 10 9 9 10 10 8 8 8 7 7 7 8 8 9 4 0 1 7 11 7 5 4 4 5 5 4 4 1 3 1 3 1 1 2 2 3 3 5 4 3 0 1 5 4 4 4 5 7 14 15 16 16 17 18 19 19 20 21 22 18 8
5 6 7 8 11 11 13 16 18 19 18 11 8 8 9 9 13 7 8 9 8 8 7 5 4 4 2 1 1 1 2 1 1 3 4 5 5 5 5 4 4 4 3 3 1 2 2 1 1 2 1 1 4 5 3 6 3 2 3 5 4 8 11 11 11 16 18 18 19 19 21 21 19 10
7 7 6 6 11 14 15 17 18 18 19 13 9 10 11 11 3 7 7 9 10 7 5 5 4 4 3 3 3 3 3 3 2 3 3 4 5 5 5 5 5 5 4 4 2 4 2 1 1 0 0 0 3 5 5 4 3 0 3 3 4 6 4 5 5 6 11 16 17 19 19 20 21 16
5 5 5 7 10 16 16 17 17 19 18 18 10 10 10 7 9 6 5 5 7 6 5 5 5 5 5 5 5 5 5 5 6 5 4 5 5 5 5 6 5 4 5 3 7 3 1 2 3 1 1 0 3 2 6 5 3 1 3 4 2 4 4 5 5 5 6 7 7 12 14 19 19 20
6 4 4 3 7 14 15 17 18 18 20 15 10 13 12 11 10 7 4 5 5 6 6 6 7 6 6 6 6 5 6 6 6 6 6 5 5 4 4 5 5 6 4 4 3 4 4 3 3 3 1 1 3 4 4 4 3 1 3 4 3 3 3 3 5 5 6 6 7 13 13 14 18 19
4 4 4 5 9 12 14 15 16 17 16 11 13 13 13 11 9 5 5 5 5 5 5 6 7 6 5 4 5 5 5 5 6 6 5 5 3 4 4 4 4 5 5 5 4 6 6 6 3 4 4 3 2 3 5 5 5 4 5 5 3 2 4 3 4 4 5 5 6 6 6 8 7 8
5 6 7 8 10 12 13 15 15 13 16 17 13 15 13 10 5 6 5 5 5 6 7 7 5 5 5 5 3 2 3 3 3 4 3 3 3 3 3 4 4 5 4 4 4 5 6 6 6 4 4 4 3 4 3 6 5 5 3 5 4 3 2 3 2 4 5 5 5 6 6 6 7 7
8 9 10 12 12 13 12 9 8 7 7 12 11 12 12 7 6 6 6 5 6 8 7 6 7 5 3 3 4 4 4 5 5 5 5 4 4 3 4 4 6 4 5 6 6 5 6 6 6 6 5 4 4 5 5 4 6 5 4 2 5 4 1 3 3 3 3 4 4 4 6 5 6 6
6 7 8 7 8 7 11 11 8 6 6 6 8 6 6 5 6 6 7 7 7 6 5 5 4 3 3 2 4 5 6 6 5 4 4 4 5 3 4 5 6 5 5 3 5 6 6 7 6 6 5 3 3 6 6 3 6 7 7 4 1 1 3 2 2 4 3 3 3 5 5 6 6 6
3 4 4 5 5 5 5 7 6 6 4 4 3 4 4 4 4 5 7 5 5 5 4 3 2 2 3 4 5 5 5 5 5 4 5 5 4 4 4 3 6 4 5 4 2 3 5 6 6 6 7 6 5 4 1 5 6 7 7 4 3 3 1 0 2 3 2 1 2 4 4 4 5 6
2 3 3 4 4 5 6 6 6 5 5 5 4 4 4 4 5 5 6 7 7 6 5 6 6 6 5 5 4 5 5 5 5 5 5 5 5 4 5 7 5 3 3 5 3 2 3 5 4 6 6 5 5 5 3 6 6 6 7 7 2 3 2 1 2 2 2 1 1 2 3 5 4 5
3 4 5 5 6 6 6 7 6 7 6 6 5 5 5 5 6 6 7 7 6 5 6 6 6 6 6 6 6 6 7 5 5 6 6 5 4 6 7 6 7 5 5 5 5 4 2 1 2 1 1 4 4 7 7 7 8 5 6 4 4 5 3 2 2 1 0 1 1 1 2 4 5 5
6 6 6 6 6 6 5 6 6 6 6 7 6 6 6 5 6 7 7 8 6 6 6 6 7 6 7 7 7 8 7 7 6 5 6 6 6 7 7 7 7 5 5 5 5 4 2 2 2 0 3 2 3 6 11 12 7 8 2 4 6 6 4 3 2 0 0 0 1 1 1 2 3 5
6 6 7 6 6 6 7 7 5 5 6 6 7 6 6 8 8 9 10 9 8 7 7 9 8 8 8 8 7 7 7 7 7 7 7 7 8 7 6 7 6 6 5 6 5 4 3 5 5 4 3 2 1 3 5 12 15 7 6 3 1 3 3 3 0 1 0 0 0 2 2 1 1 4
7 7 7 7 7 7 8 7 8 8 8 8 9 9 10 11 10 10 10 7 8 8 9 9 9 9 9 8 8 8 8 8 8 8 8 7 6 6 7 7 7 6 6 6 5 5 3 5 5 6 4 4 4 7 6 2 7 10 7 6 3 3 4 2 2 1 2 2 1 2 3 3 1 2
7 6 6 6 7 7 6 6 6 7 7 8 8 8 9 9 7 7 5 6 8 7 8 8 9 8 8 8 8 8 8 8 7 7 8 7 8 8 8 8 7 6 6 5 5 5 4 6 6 6 6 7 5 6 4 2 0 4 7 7 6 5 2 3 2 4 3 2 4 3 1 1 3 3
6 6 7 7 7 6 7 6 6 7 7 7 8 9 9 8 7 6 7 8 8 8 8 8 9 9 9 9 9 9 9 8 9 9 9 8 9 8 8 7 7 6 5 6 5 5 4 5 6 6 7 7 8 5 4 3 4 3 3 6 6 3 4 6 5 2 4 3 4 2 2 3 3 6
6 5 6 6 7 6 6 6 6 7 8 8 9 8 8 9 8 7 8 8 9 9 9 10 9 8 9 9 9 8 8 10 10 9 9 8 8 8 8 7 6 6 5 6 6 6 6 7 6 7 7 8 6 4 3 2 2 3 5 7 9 8 6 5 5 4 2 4 2 2 2 2 1 2
6 6 6 6 6 6 7 7 7 6 7 7 8 7 8 8 8 8 8 9 8 9 9 9 9 10 10 9 9 9 10 9 8 8 7 7 8 8 8 7 6 6 7 8 6 6 7 6 7 8 5 3 3 4 1 2 5 3 4 7 8 11 9 8 6 4 3 2 4 3 3 2 1 1
5 7 6 6 6 6 6 7 7 7 7 7 7 8 7 7 8 7 8 8 9 9 8 9 9 9 9 8 8 8 9 9 9 8 8 7 7 7 9 8 7 7 7 9 8 6 4 1 2 4 6 6 4 4 6 6 6 3 2 3 4 4 5 7 10 9 6 6 5 2 1 0 1 1
5 6 7 6 6 6 6 7 7 7 8 7 7 7 7 7 7 7 7 7 8 8 9 9 8 8 8 7 7 8 8 9 8 8 8 8 8 9 9 9 8 8 7 6 3 4 3 2 3 4 5 5 5 5 7 6 4 2 1 1 1 1 2 4 4 7 9 11 9 6 4 3 3 1
5 6 6 6 7 7 7 7 8 7 8 7 7 7 7 7 8 8 8 8 8 9 9 8 7 7 8 8 7 8 9 9 8 8 9 9 9 9 8 7 7 6 6 5 4 4 3 3 3 4 4 5 4 5 7 3 4 5 4 2 1 1 4 2 2 4 4 7 10 10 8 8 7 6
5 5 6 6 5 6 6 6 6 6 7 7 6 7 7 7 8 8 7 8 8 8 8 8 8 8 7 8 8 10 10 8 8 8 7 7 7 8 7 7 6 6 6 5 5 4 3 3 3 4 5 5 5 5 6 5 5 3 3 2 3 3 3 1 2 3 1 2 5 8 8 5 3 3
Wind_Direction
165 160 166 162 157 166 159 136 133 130 122 130 139 156 163 165 137 169 192 238 174 198 97 144 125 85 73 80 57 73 52 49 56 26 11 10 8 17 12 4 3 359 357 353 354 353 351 350 351 352 353 351 349 348 348 349 348 347 349 351 351 354 352 353 351 349 348 347 346 345 347 347 346 345
162 157 156 153 152 163 155 151 141 133 134 130 137 144 148 151 150 161 163 230 206 134 14 71 140 72 56 66 58 74 44 58 52 22 14 21 16 26 14 4 0 358 357 356 356 353 352 352 353 354 355 351 350 348 348 350 348 347 350 351 352 353 352 351 351 350 349 348 347 347 348 348 347 346
158 164 165 165 154 156 154 143 131 128 126 130 125 126 119 124 139 144 132 140 258 135 135 19 32 140 58 73 77 38 36 51 47 23 31 22 27 34 10 2 358 355 357 358 358 354 355 356 356 356 355 350 350 348 348 350 349 347 350 352 353 353 352 351 351 350 350 348 348 349 349 349 348 347
167 163 168 174 163 159 150 143 140 131 121 126 128 135 131 129 132 131 128 133 171 33 128 144 98 90 97 51 73 23 27 20 30 34 46 23 29 31 10 354 352 352 355 0 358 355 359 1 0 357 355 350 350 348 349 352 350 350 350 351 352 353 352 351 352 352 351 349 350 350 350 349 349 349
163 168 169 175 167 162 153 151 139 129 129 120 122 125 128 134 142 137 145 156 169 311 34 102 107 41 79 16 103 76 34 17 356 39 47 32 24 25 6 348 338 346 353 3 358 357 2 4 3 359 355 351 351 349 352 354 352 351 352 352 353 354 353 353 354 352 350 349 350 350 350 349 349 349
173 164 165 172 168 177 153 149 144 145 137 138 136 145 146 155 160 162 131 173 146 178 277 44 349 40 64 64 12 114 76 13 21 42 15 17 34 28 1 344 332 340 354 4 357 359 5 5 4 1 357 353 351 352 354 355 353 353 352 352 353 353 354 354 354 352 350 349 349 349 350 351 350 349
164 163 169 174 166 158 144 148 144 142 144 143 148 154 147 153 160 155 126 127 181 173 214 176 162 193 322 154 130 128 116 92 98 69 19 7 352 13 357 339 339 331 353 360 357 359 4 6 3 2 359 355 354 355 356 355 354 354 351 352 354 352 353 354 354 352 351 350 349 349 352 352 352 351
169 170 165 177 170 160 149 150 147 150 146 151 151 150 153 147 158 151 132 128 143 172 167 237 167 224 160 319 102 150 114 69 61 72 8 355 6 346 349 339 326 330 354 356 358 359 2 3 3 1 360 357 356 358 358 355 354 353 351 353 354 353 353 353 354 351 351 352 351 351 352 353 353 352
168 168 177 174 170 163 150 153 155 160 161 159 154 159 157 153 150 139 142 142 121 146 177 195 250 197 186 209 135 114 80 11 52 55 6 319 322 329 335 322 317 336 357 350 357 0 1 0 0 359 359 358 359 359 359 356 354 353 350 353 354 355 354 354 353 353 353 353 352 352 353 354 354 354
169 171 176 175 170 168 164 168 165 165 166 158 162 161 159 153 146 148 147 146 153 165 188 172 222 253 173 296 180 146 96 116 65 3 331 321 343 351 335 335 315 314 343 335 346 351 355 355 356 357 358 358 1 0 359 356 353 353 350 352 354 355 355 355 355 352 353 355 355 355 354 355 356 356
170 170 173 174 176 175 171 164 170 169 167 169 172 170 162 157 154 161 168 164 174 184 190 211 197 208 246 182 208 219 97 107 130 67 331 13 339 348 328 319 311 267 331 347 357 356 358 354 350 352 356 359 1 360 354 349 351 352 350 352 354 355 355 356 355 352 353 355 357 359 357 357 358 358
172 169 174 179 181 179 175 171 170 168 169 164 165 167 156 158 159 169 169 174 182 188 194 200 201 195 194 260 84 70 64 43 356 79 74 357 341 341 327 284 284 304 1 353 344 348 347 348 340 346 352 357 359 353 350 339 339 349 350 353 355 355 356 357 355 353 353 355 356 358 360 359 360 1
178 168 173 182 185 183 177 174 170 174 167 162 164 169 163 163 166 166 172 180 178 188 190 208 187 187 205 207 166 222 155 176 183 224 122 68 297 328 315 305 339 26 356 340 340 341 344 333 335 336 347 350 351 342 342 334 329 350 352 355 355 356 357 357 355 353 354 355 356 358 0 1 2 3
180 181 175 182 183 176 170 167 168 166 169 174 170 165 167 166 167 172 173 181 186 181 193 206 188 197 217 208 191 174 206 164 144 78 68 56 297 299 285 261 221 21 8 349 343 333 332 336 324 351 348 340 342 330 328 320 341 353 355 356 358 358 358 357 355 354 355 356 356 358 2 2 3 5
172 178 177 170 172 169 165 166 166 167 167 165 150 156 166 169 170 167 175 190 182 188 200 192 190 204 209 210 179 190 180 168 145 145 140 256 253 272 335 332 311 59 31 349 343 323 329 352 340 336 335 331 331 330 320 329 349 355 357 358 359 360 359 358 356 355 356 358 357 359 2 4 5 5
172 171 168 170 168 172 169 160 160 162 163 160 152 163 164 169 178 185 171 171 183 193 188 192 206 187 204 194 181 185 156 159 124 150 167 208 207 243 254 265 271 282 53 1 344 309 302 14 334 331 326 326 319 314 327 334 353 358 359 0 1 1 0 358 358 355 357 359 358 359 3 6 6 7
174 169 164 164 171 167 161 156 157 153 154 154 150 149 161 171 182 189 192 195 194 180 183 189 199 200 178 181 203 180 166 148 147 177 211 206 214 224 237 243 254 302 90 63 348 286 287 19 352 324 317 322 318 323 327 339 356 359 2 2 2 2 1 1 358 357 358 1 360 0 3 7 8 8
177 175 170 167 170 171 168 164 160 158 155 154 152 156 165 175 188 194 201 201 190 185 189 182 197 199 161 188 174 175 153 138 169 188 213 216 203 206 231 263 259 281 106 90 350 319 294 342 359 320 311 317 316 313 325 350 354 0 3 4 4 3 3 1 359 358 360 1 2 1 3 8 9 9
182 179 177 176 174 170 173 174 168 163 164 160 163 165 177 185 191 196 200 198 189 186 184 193 191 181 179 178 171 167 160 157 183 204 208 190 217 236 41 11 267 300 154 90 152 228 269 323 340 293 303 322 312 301 321 349 356 359 5 7 7 6 5 3 0 1 1 3 2 3 5 10 11 8
186 184 181 177 175 175 176 174 171 167 159 162 166 176 181 187 199 215 209 203 195 187 181 188 190 187 186 176 172 173 171 179 186 152 113 133 117 92 322 268 272 222 283 152 132 258 289 279 328 303 299 306 300 310 338 341 352 358 4 10 10 10 7 4 2 2 3 3 4 4 6 11 12 10
186 189 186 180 172 172 178 175 174 170 162 165 172 178 183 190 200 216 207 210 212 209 206 202 201 202 199 198 196 198 203 192 154 142 173 216 149 156 232 290 148 275 308 296 120 172 270 293 331 310 306 303 296 317 330 330 339 354 2 11 13 12 8 6 4 3 4 4 5 6 6 10 14 11
180 187 185 177 173 178 179 177 177 173 166 170 178 178 180 190 207 215 192 194 213 213 212 210 207 209 215 217 218 222 221 219 163 161 204 201 150 184 185 215 261 276 257 250 138 84 238 291 321 311 301 312 279 285 308 344 336 348 349 4 13 13 10 8 6 5 6 5 6 7 8 10 14 13
164 178 184 188 184 187 179 180 179 176 173 178 181 183 176 195 211 213 179 187 188 193 199 211 210 220 225 228 246 283 229 224 187 165 179 178 170 194 199 182 262 349 308 236 178 78 281 36 322 6 337 354 295 185 340 340 323 335 339 350 356 9 8 9 8 7 6 6 7 9 11 11 15 13
190 186 188 191 191 188 185 186 185 184 184 184 180 173 189 191 221 187 186 197 190 195 197 199 190 195 162 172 158 199 251 274 126 150 160 187 190 199 193 186 180 183 221 256 120 122 269 99 303 348 114 119 302 307 353 320 342 300 352 360 5 358 358 4 1 4 7 7 8 8 10 14 17 15
192 195 193 190 195 190 186 192 194 193 193 187 183 190 199 204 136 139 184 196 188 190 184 180 189 191 190 203 207 209 201 204 186 188 197 194 198 189 196 189 202 225 217 220 189 109 244 236 258 296 308 225 258 305 304 303 292 11 351 13 360 346 354 354 350 351 358 3 2 9 11 16 19 23
210 203 194 199 197 193 189 195 200 199 198 193 190 207 204 178 173 161 179 180 178 177 174 179 201 205 211 218 219 212 202 197 197 198 217 210 195 194 189 190 203 216 243 248 184 142 138 295 179 170 246 260 274 296 306 305 265 214 15 356 15 344 358 345 352 354 356 354 342 5 10 15 22 22
211 201 207 201 196 200 196 200 204 204 202 197 203 202 196 192 187 160 157 172 172 171 181 193 215 216 212 219 220 211 206 198 193 195 203 204 190 195 195 202 210 221 222 204 216 179 172 209 222 169 202 271 289 295 272 284 305 319 5 337 340 339 351 5 5 351 349 353 343 355 359 9 19 23
200 197 203 203 204 212 210 210 211 210 206 207 200 193 197 194 190 142 159 177 185 172 186 210 221 225 220 217 224 224 214 197 190 190 185 186 185 184 209 224 232 228 230 226 197 185 185 199 219 205 185 193 231 276 289 283 283 300 320 319 317 326 356 7 3 353 350 348 344 344 352 354 355 7
198 195 193 196 206 215 221 221 220 221 218 215 204 194 187 191 186 161 172 179 174 196 212 219 223 231 215 204 208 201 196 188 156 159 184 186 207 207 225 244 246 249 245 235 215 199 193 195 210 202 191 198 206 246 261 273 307 296 319 332 332 319 347 337 19 4 345 350 350 348 353 343 352 0
188 189 187 192 200 208 217 220 219 220 221 220 207 198 192 189 182 157 168 175 194 217 216 214 221 221 193 200 183 162 161 167 190 178 196 206 245 226 245 271 269 254 243 236 228 210 199 200 202 189 188 210 201 228 240 262 276 269 284 278 268 307 302 6 360 347 6 352 340 336 334 342 351 360
181 187 188 192 196 200 209 215 220 222 219 219 214 202 197 175 169 171 179 190 204 218 219 221 223 200 192 156 143 167 169 191 200 185 193 202 224 195 209 203 254 277 264 238 232 210 202 202 198 175 179 209 223 218 231 210 255 281 282 261 239 246 276 338 341 343 338 332 332 333 345 352 353 359
162 164 171 185 193 192 203 213 211 211 193 206 204 192 173 161 155 169 185 192 204 221 205 201 159 155 160 184 187 174 185 203 207 196 200 203 218 202 174 212 253 256 287 293 305 228 203 207 194 198 198 185 204 251 214 201 232 253 269 273 249 279 248 270 309 308 332 348 16 348 331 350 353 346
121 138 167 181 188 196 205 208 204 191 186 196 183 182 164 153 164 173 179 202 211 202 186 213 204 202 184 199 184 193 200 212 209 210 205 219 195 209 184 220 222 224 250 279 291 305 221 215 209 200 204 213 216 202 201 273 258 235 230 255 239 250 269 259 216 270 335 47 358 327 337 338 340 344
160 188 200 206 200 206 205 212 205 203 200 194 192 205 191 185 186 196 206 213 212 189 202 208 205 206 193 204 196 198 211 218 208 209 201 215 195 195 217 220 229 213 212 236 253 267 286 229 194 237 238 240 242 217 209 223 255 252 222 246 216 236 253 219 266 237 230 186 169 22 345 332 322 338
195 209 217 222 214 218 217 225 220 205 199 207 204 210 208 212 210 213 216 217 202 201 201 205 207 208 203 210 200 205 211 207 207 203 211 192 208 211 209 220 227 213 212 226 240 246 207 196 133 87 346 331 299 281 215 206 215 237 252 248 229 216 237 231 209 278 101 24 125 133 276 319 326 315
214 212 223 223 220 210 217 225 216 204 205 206 208 210 212 223 216 214 224 210 199 205 189 202 204 206 211 213 208 206 206 200 200 200 205 203 206 217 217 223 222 223 209 218 223 224 189 202 166 174 211 286 303 294 311 217 202 191 189 243 255 206 229 203 262 180 77 260 92 133 159 209 278 304
219 216 221 227 223 212 221 212 206 208 205 205 207 208 214 221 218 216 219 191 202 206 210 208 212 207 208 208 210 210 203 198 203 200 204 208 203 206 216 225 218 208 208 218 197 218 181 196 188 173 175 207 220 238 243 332 222 196 170 208 246 226 193 173 134 205 235 176 217 173 179 186 228 278
231 227 235 237 237 239 237 229 219 223 221 220 222 225 229 234 235 227 193 196 213 212 214 215 220 211 210 204 204 210 205 207 202 203 206 197 201 210 212 214 216 210 212 211 197 206 192 191 189 185 172 202 219 238 269 298 13 258 189 172 197 228 178 136 157 198 242 238 198 224 134 153 233 236
232 235 236 243 244 241 241 235 222 229 227 227 227 231 233 235 229 213 196 209 210 211 212 216 217 213 211 209 207 205 204 200 202 206 202 204 203 206 211 209 211 210 191 218 209 210 184 202 205 192 190 193 207 213 185 189 240 264 272 203 171 174 193 175 210 208 192 203 253 278 256 253 258 264
241 235 240 242 250 240 244 236 231 227 229 229 231 232 231 234 226 215 209 209 210 212 212 217 213 208 214 208 207 208 213 211 208 205 202 203 204 204 206 208 206 193 201 213 212 220 212 220 209 203 200 210 217 198 163 178 232 264 275 277 225 184 196 168 191 172 228 222 169 155 257 1 291 319
259 255 250 241 248 244 245 243 236 234 233 233 236 235 231 233 228 222 215 212 210 211 216 218 215 215 215 209 206 203 209 213 209 208 203 199 201 203 204 202 209 203 198 230 219 218 223 221 223 220 190 149 121 94 64 316 269 271 260 257 251 232 207 179 178 166 201 179 154 153 190 206 233 2
249 258 259 251 247 248 242 248 244 240 242 234 235 235 234 230 233 220 212 213 213 215 219 219 218 216 218 211 207 207 211 211 208 206 200 193 196 202 202 200 201 205 204 219 217 216 237 258 192 148 125 140 133 161 218 219 242 266 264 284 305 271 249 232 204 192 172 144 124 123 133 341 43 334
258 259 263 256 253 251 246 248 248 244 246 238 233 233 230 231 227 218 215 212 212 214 221 223 219 215 217 210 207 207 210 216 210 202 198 197 195 196 200 204 202 202 212 221 176 172 210 149 129 124 145 148 191 179 220 228 226 233 286 311 271 299 314 294 279 242 216 198 197 176 167 166 144 189
265 267 265 260 256 253 248 245 249 244 242 240 234 228 226 226 227 222 216 217 212 217 218 219 218 212 212 208 205 208 213 212 206 200 199 200 198 199 200 200 196 190 197 197 190 194 191 183 185 167 160 199 182 187 230 229 246 229 227 231 275 160 217 275 331 332 290 234 220 218 218 196 202 202
299 294 295 290 280 274 271 264 261 261 254 250 243 234 230 229 232 228 223 219 220 219 214 215 212 213 207 203 199 210 214 202 204 208 201 198 198 197 194 191 190 190 195 192 182 206 199 204 212 182 200 207 188 202 218 212 230 238 231 198 233 220 219 179 194 244 260 311 282 230 215 238 275 253